Lawrence, MA

4:59 AM EDT on August 25, 2016 (GMT -0400)
Lawrence Municipal

Weather History for KLWM - July, 2013

Change the Weather History Date:

Wednesday, July 24, 2013

  Actual Average Record
Temperature  
Mean Temperature 76 °F -  
Max Temperature 86 °F 84 °F 95 °F (1941)
Min Temperature 64 °F 62 °F 50 °F (1934)
Cooling Degree Days 11    
Growing Degree Days 26 (Base 50)    
Moisture  
Dew Point 66 °F    
Average Humidity 74    
Maximum Humidity 94    
Minimum Humidity 48    
Precipitation  
Precipitation 0.00 in - - ()
Sea Level Pressure  
Sea Level Pressure 29.70 in    
Wind  
Wind Speed 3 mph (West)    
Max Wind Speed 14 mph    
Max Gust Speed 20 mph    
Visibility 8 miles    
Events Fog    
Averages and records for this station are not official NWS values.
T = Trace of Precipitation, MM = Missing Value Source: NWS Daily Summary

Daily Weather History Graph

Daily Weather History Graph

Search for Another Location

Airport or City:

Trip Planner

Search our weather history database for the weather conditions in past years. The results will help you decide how hot, cold, wet, or windy it might be!

Date:

Astronomy

Jul. 24, 2013 Rise Set
Actual Time 5:28 AM EDT 8:13 PM EDT
Civil Twilight 4:55 AM EDT 8:45 PM EDT
Nautical Twilight 4:13 AM EDT 9:27 PM EDT
Astronomical Twilight 3:26 AM EDT 10:14 PM EDT
Moon 9:11 PM EDT (7/24) 7:49 AM EDT (7/24)
Length of Visible Light 15h 50m
Length of Day
14h 44m
Waning Gibbous, 95% of the Moon is Illuminated
Jul 24
Waning Gibbous
Jul 29
Last Quarter
Aug 6
New
Aug 14
First Quarter
Aug 20
Full

Hourly Weather History & Observations

Time (EDT) Temp. Heat Index Dew Point Humidity Pressure Visibility Wind Dir Wind Speed Gust Speed Precip Events Conditions
12:54 AM 73.0 °F - 69.1 °F 87% 29.60 in 8.0 mi Calm Calm - N/A   Clear
1:54 AM 73.0 °F - 70.0 °F 90% 29.60 in 9.0 mi Calm Calm - N/A   Overcast
2:54 AM 73.0 °F - 69.1 °F 87% 29.60 in 9.0 mi South 3.5 mph - N/A   Mostly Cloudy
3:54 AM 73.0 °F - 69.1 °F 87% 29.60 in 10.0 mi Calm Calm - N/A   Overcast
4:16 AM 71.6 °F - 69.8 °F 94% 29.61 in 9.0 mi Calm Calm - N/A   Mostly Cloudy
4:25 AM 71.6 °F - 69.8 °F 94% 29.61 in 8.0 mi South 3.5 mph - N/A   Mostly Cloudy
4:54 AM 72.0 °F - 69.1 °F 91% 29.61 in 6.0 mi Calm Calm - N/A   Overcast
5:18 AM 71.6 °F - 69.8 °F 94% 29.62 in 1.5 mi SSW 3.5 mph - N/A   Overcast
5:24 AM 71.6 °F - 69.8 °F 94% 29.61 in 0.5 mi Calm Calm - N/A Fog Fog
5:31 AM 71.6 °F - 69.8 °F 94% 29.61 in 0.5 mi Calm Calm - N/A Fog Fog
5:54 AM 72.0 °F - 69.1 °F 91% 29.61 in 0.5 mi South 3.5 mph - N/A Fog Fog
6:40 AM 71.6 °F - 69.8 °F 94% 29.63 in 1.0 mi Calm Calm - N/A   Mist
6:50 AM 71.6 °F - 69.8 °F 94% 29.63 in 2.0 mi SSW 3.5 mph - N/A   Overcast
6:54 AM 72.0 °F - 69.1 °F 91% 29.63 in 2.0 mi SSW 3.5 mph - N/A   Overcast
7:03 AM 73.4 °F - 69.8 °F 88% 29.63 in 5.0 mi South 3.5 mph - N/A   Overcast
7:19 AM 73.4 °F - 69.8 °F 88% 29.64 in 9.0 mi Calm Calm - N/A   Overcast
7:54 AM 75.0 °F - 71.1 °F 87% 29.64 in 10.0 mi Calm Calm - N/A   Partly Cloudy
8:06 AM 75.2 °F - 69.8 °F 83% 29.64 in 10.0 mi SW 3.5 mph - N/A   Partly Cloudy
8:54 AM 80.1 °F 82.7 °F 68.0 °F 67% 29.65 in 10.0 mi Variable 3.5 mph - N/A   Partly Cloudy
9:54 AM 81.0 °F 83.8 °F 68.0 °F 65% 29.67 in 10.0 mi Variable 5.8 mph - N/A   Clear
10:54 AM 82.0 °F 84.9 °F 68.0 °F 62% 29.68 in 10.0 mi NW 4.6 mph - N/A   Partly Cloudy
11:54 AM 86.0 °F 89.4 °F 68.0 °F 55% 29.70 in 10.0 mi WSW 8.1 mph - N/A   Scattered Clouds
12:54 PM 82.9 °F 84.6 °F 64.9 °F 54% 29.70 in 10.0 mi West 11.5 mph 19.6 mph N/A   Overcast
1:54 PM 84.0 °F 84.9 °F 63.0 °F 49% 29.70 in 10.0 mi West 13.8 mph 18.4 mph N/A   Mostly Cloudy
2:54 PM 82.9 °F 84.6 °F 64.9 °F 54% 29.72 in 10.0 mi NW 9.2 mph 19.6 mph N/A   Mostly Cloudy
3:54 PM 82.0 °F 83.0 °F 62.1 °F 51% 29.75 in 10.0 mi NW 10.4 mph - N/A   Mostly Cloudy
4:54 PM 81.0 °F 81.7 °F 61.0 °F 50% 29.76 in 10.0 mi NW 12.7 mph 19.6 mph N/A   Scattered Clouds
5:54 PM 80.1 °F 80.7 °F 59.0 °F 48% 29.78 in 10.0 mi WNW 10.4 mph 16.1 mph N/A   Clear
6:54 PM 78.1 °F - 57.9 °F 50% 29.81 in 10.0 mi NW 4.6 mph - N/A   Clear
7:54 PM 75.0 °F - 60.1 °F 60% 29.84 in 10.0 mi North 4.6 mph - N/A   Clear
8:54 PM 73.0 °F - 57.0 °F 57% 29.89 in 10.0 mi North 6.9 mph - N/A   Clear
9:54 PM 70.0 °F - 54.0 °F 57% 29.93 in 10.0 mi North 9.2 mph - N/A   Scattered Clouds
10:54 PM 66.9 °F - 53.1 °F 61% 29.95 in 10.0 mi NNW 9.2 mph - N/A   Partly Cloudy
11:54 PM 64.9 °F - 48.0 °F 54% 29.99 in 10.0 mi NNW 11.5 mph - N/A   Mostly Cloudy